Location: *
(50.3194°N, 7.1067°E)
Time: 02:14:24
(UTC+00:00)

Terra - Pass Details

Date: 22 September 2019
Orbit: 701 x 703 km, 98.2° (Epoch: 21 October)

Event Time Altitude Azimuth Distance (km) Brightness Sun altitude
Exits shadow 21:21:29 32° 347° (NNW) 1,210 3.4 -33.2°
Drops below altitude 10° 21:24:00 10° 346° (NNW) 2,183 5.1 -33.4°
Sets 21:26:16 0° 347° (NNW) 3,106 6.0 -33.6°
